Location: Pebble Beach Sunset Acres
(33.0837°N, 96.4508°W)
Time: 20:16:36
(UTC+00:00)

DELTA 2 R/B (1) - Pass Details

Date: 27 June 2022
Orbit: 790 x 803 km, 39.6° (Epoch: 11 August)

Event Time Altitude Azimuth Distance (km) Brightness Sun altitude
Rises 05:23:34 0° 291° (WNW) 3,301 7.3 -31.5°
Reaches altitude 10° 05:26:07 10° 287° (WNW) 2,370 6.4 -31.6°
Enters shadow 05:28:35 26° 276° (W) 1,536 5.2 -31.8°
